Terminal Aerodrome Forecast
Issued by NWS Tampa Bay Area, FL

Home | Current Version | Previous Version | Text Only | Print | Product List | Glossary On
Versions: 1 2 3 4 5 6 7 8 9 10 11 12 13 14 15 16
263
FTUS42 KTBW 271126
TAFFMY
TAF
KFMY 271126Z 2712/2812 17005KT P6SM FEW025 BKN200
     FM271300 VRB05KT P6SM SCT020 SCT200
     FM271700 28009KT P6SM VCTS BKN035CB BKN120
     FM272200 32007KT P6SM SCT040 BKN200
     FM280100 VRB05KT P6SM SCT050 BKN200=

USA.gov is the U.S. government's official web portal to all federal, state and local government web resources and services.